GFSSGP_con_sbcape_123.txt.gz
CAPE
805 1019 2021 2052 2527 906 251 118 23 9 29 1 1 3 2 82 527 621 247 342 432 460 838 1222 2025 1805 1601 1578 2353 2261 1773 1731 1601 1720 2008 2306 2462 2248 2068 2027 1830 1576 1367 1296 1385 1459 1298 1301 1303
1470 1596 2271 2468 1419 254 259 143 90 285 256 51 0 43 0 304 418 254 323 389 507 198 833 1460 2514 1915 2089 1350 2646 2536 2104 1927 1772 2021 1952 2283 2561 2346 1916 1612 1630 1712 1418 1664 1450 1438 1265 1136 1297
1798 1725 2519 1604 132 315 340 331 338 425 392 209 26 0 134 360 278 288 295 381 575 133 458 2173 2788 2321 1974 1925 2364 2710 2551 2289 1868 1835 1825 1993 1906 2336 1975 1456 1546 1671 1698 1731 1659 1485 1406 1155 1057
1956 2610 2560 829 252 361 368 338 492 622 518 464 326 390 220 271 202 356 314 351 465 292 518 2560 3103 2688 2589 2424 2412 2967 2882 2696 2246 2254 1834 1686 1914 1872 1714 1584 1669 1763 1613 1750 1720 1491 1669 1197 1002
1819 848 508 458 394 389 399 428 353 535 697 623 612 602 498 454 353 396 360 332 492 602 961 1756 3246 3239 3235 3283 2862 3342 3121 3101 2702 2311 1677 1790 1949 2079 1637 1678 1508 1738 1369 1312 1320 1542 1574 1293 970
1237 318 602 369 356 359 382 416 436 480 440 533 753 1132 1147 742 339 346 311 398 491 1097 1092 1294 3017 3225 3333 3192 3028 3122 2813 2623 2660 2387 2010 1877 2129 1842 2078 1715 1681 1511 1237 1505 1179 1372 1475 1284 1072
897 762 432 262 337 259 240 278 357 489 500 503 625 1357 1543 747 324 277 241 235 474 851 1189 1690 1469 2276 2532 3091 3065 3042 2968 2766 2895 2625 2651 2313 1740 1702 1697 1723 1731 1448 1596 1335 1434 1501 1091 1302 1274
679 478 211 192 235 120 43 150 151 200 114 441 534 641 2092 1078 310 239 217 221 585 910 1354 1238 1942 1800 1807 2188 3112 2697 2647 2803 2179 2208 2144 1648 1685 1605 1697 1658 1529 1572 1524 1571 1560 1267 833 1241 1208
126 561 308 208 138 97 41 5 0 21 45 78 217 879 1520 1160 361 254 185 180 521 780 1254 1342 1692 2822 2851 2482 2214 2830 2556 2401 2264 2180 1920 1980 1278 1551 1705 1371 1620 1584 1519 1647 1477 1151 1157 1543 1213
100 127 77 104 105 29 0 0 0 2 0 7 231 1160 1791 1031 577 390 244 212 430 595 1062 1077 1663 2181 2356 1971 2778 2048 1524 1684 1642 1847 1964 1496 1494 1132 1032 1749 1697 1632 1645 1601 1526 1313 1227 1424 527
69 3 1 1 35 3 0 0 0 4 10 10 0 1286 1806 1242 873 701 446 388 449 658 944 1126 1786 2351 2093 2009 2245 2158 2050 2354 2301 2385 2022 1536 2084 1648 1341 1843 1438 1515 1622 1169 1280 1176 764 154 290
0 0 0 0 0 0 0 0 0 0 0 0 0 208 1779 1655 1351 1153 884 744 684 714 766 940 1267 2428 2200 2187 2076 1678 1336 1456 1666 2112 2756 2749 2676 1767 1805 2156 319 1195 1247 486 1044 241 145 68 79
0 0 0 0 0 0 0 0 0 0 0 0 0 4 1532 1745 1863 1693 1468 1024 944 881 871 1068 1403 3011 2682 2650 1215 1773 1056 854 1068 2229 2868 2262 2077 1990 1917 1364 1857 556 1031 485 671 1307 349 916 109
0 0 0 0 0 0 0 0 0 0 0 0 0 0 417 1506 1982 2102 2116 1639 1110 1014 985 1234 1670 2526 2094 2617 2943 2532 1211 1077 827 1585 1587 2103 2396 2557 2438 1974 2437 1715 755 477 802 1606 1388 1332 182
0 0 0 0 0 0 0 0 0 0 0 0 0 0 45 1170 1515 2100 2263 2113 1472 1391 1288 1500 1903 2031 2638 3168 2386 2185 1448 1197 1031 1017 2794 2412 2937 2956 2677 2149 1901 1685 704 1381 1634 1389 709 421 281
0 0 0 0 0 0 0 0 0 0 0 0 0 0 56 362 1386 1838 2190 2298 1925 1740 2209 2268 1934 2001 2375 3038 2659 2173 1522 1200 1175 858 2443 3102 3213 2726 2699 1953 1696 1648 2006 532 526 1304 608 357 243
0 0 0 0 0 0 0 0 0 0 0 0 0 0 101 583 859 1946 2061 2220 2046 1961 2843 3147 3219 2213 2556 3466 2387 2415 2983 1702 1233 1237 1213 3322 2337 2040 1858 980 1449 2395 825 1357 655 360 451 492 401
0 0 0 0 0 0 0 0 0 0 0 0 0 0 83 521 995 2010 2146 2179 2193 1876 2072 2880 3057 3738 3999 2914 3313 1984 1525 1427 1320 1329 1247 3051 2349 2577 1952 1080 1782 2135 1055 1936 1545 1911 1233 632 408
0 0 0 0 0 0 0 0 0 0 0 0 0 108 376 536 1314 2231 2087 2078 2269 2155 2057 2862 3146 4480 3478 2723 2518 2309 1752 1640 1357 1207 2485 2795 2063 2918 3557 1766 2022 2160 1804 2212 2752 2941 2342 1648 1922
0 0 0 0 0 0 0 0 0 0 0 0 0 187 790 1232 1511 1942 2022 2143 2272 2455 2529 2546 2944 3835 3575 2988 2945 2797 2764 1836 1707 1287 2181 2008 2498 2480 2789 2603 2342 2403 1893 3340 3004 3050 2522 2324 2159
0 0 0 0 0 0 0 0 0 0 0 0 0 58 377 836 1603 1775 2008 2214 2197 2454 2637 2969 3372 3788 3960 3941 3340 3507 3190 3174 2402 1910 1438 1891 2269 2824 3074 2775 2784 3054 2570 2021 3103 2988 3019 1905 2420
0 0 0 0 0 1 0 12 7 0 0 0 6 15 226 371 512 1071 1656 1844 1897 2592 2748 3079 3734 3800 4122 4275 3550 2751 2050 2538 2610 2489 1744 1570 2804 2948 3005 3353 3176 3280 2530 2471 2556 3096 3141 3092 2210
0 0 0 0 0 0 0 0 46 3 0 1 14 3 4 152 662 537 584 808 858 1013 1575 2159 4087 4698 4270 4418 4020 2935 2646 1637 2478 1431 2335 2836 2888 3039 2528 3131 3353 3583 2669 2946 3023 3279 3242 2251 1950
0 0 0 0 0 2 5 0 13 41 12 9 1 1 0 44 270 775 970 1128 1128 1142 1079 1037 1974 3457 4706 4041 4230 4553 4703 3636 2394 2533 2074 2189 1800 2474 2830 2926 3572 3759 3264 3350 3214 3799 3635 3295 2580
0 0 0 12 46 62 2 0 0 0 0 0 0 0 0 28 282 480 703 715 898 932 1098 877 1314 2198 3016 3914 3877 4363 4500 4361 3632 3417 2516 696 2052 1971 3002 3214 3445 3473 3928 3787 3639 4002 3582 3537 2849
0 0 0 0 7 3 2 0 35 0 0 0 0 0 0 2 0 121 382 570 686 709 892 1065 1327 1876 2318 2499 3303 4506 4001 3771 3891 3836 3215 2737 2452 2440 3383 3573 3567 3923 3837 4014 4399 3410 3263 3557 3584
0 0 0 0 0 0 5 17 8 0 0 0 0 0 6 20 56 62 344 519 686 799 696 1065 1250 1695 2073 2227 2706 4090 4391 4751 4099 4139 3802 2940 3099 3260 4011 4121 3814 4051 3785 4090 4171 3389 3906 3928 3697
0 0 0 0 4 3 19 11 39 48 16 11 6 5 1 0 92 92 106 207 540 718 739 759 963 1277 1662 2039 2311 2746 3170 3457 4524 4052 3896 3749 3694 3800 3678 3994 4070 3954 3981 3878 4157 3431 3589 4006 3058
0 0 1 0 0 0 9 13 14 4 14 0 0 0 2 0 47 200 475 539 693 686 691 828 949 1185 1322 1619 2038 2229 3011 3618 3416 3726 3686 3570 3728 3647 3736 3909 3650 4165 4134 4005 3888 3771 3407 3578 3848
0 0 0 3 0 12 6 0 15 0 0 0 0 0 0 127 220 274 345 373 519 795 945 998 1123 1389 1492 1579 1698 1723 1944 2265 3069 3115 3549 3548 3590 3172 3596 3701 3669 3751 3642 3955 3980 3879 3016 3348 3531

GFSSGP_con_sbcape_129.txt.gz
CAPE
734 591 472 677 1592 1701 2 9 0 0 0 0 35 68 230 284 350 287 375 360 319 478 607 1111 1703 962 809 612 846 1262 1454 1629 1803 2158 1984 2332 2471 2419 2645 2682 2262 1931 2159 1583 1241 1275 1148 1573 1661
239 1053 350 10 266 49 23 7 5 0 2 4 90 169 354 507 475 452 364 385 294 328 621 1337 2005 1830 1267 1060 759 1398 1624 1712 2182 2039 2037 2347 2379 2400 2333 2061 1965 1971 1664 1191 1104 1189 1081 1367 1318
1078 2154 65 168 245 54 227 49 29 10 46 19 26 71 179 518 549 336 317 229 161 141 624 1557 2563 1958 1769 1644 1565 2257 2651 2514 2321 2274 2408 2416 2547 2640 2277 1697 1731 1653 1724 1484 1235 1104 823 789 1222
884 1289 251 185 141 119 88 1 125 185 127 156 20 230 179 511 413 411 311 173 166 141 908 2456 2766 2435 1885 1699 1786 1975 2775 2421 2502 2697 2806 2460 2273 2510 2467 1739 1714 1834 1635 1709 1425 1078 759 882 1074
207 515 303 8 198 191 32 8 365 137 14 166 59 64 170 504 372 460 323 353 813 739 1286 1922 2704 2828 2759 2588 2194 2011 2670 2832 2788 2776 2515 2886 2814 2059 2210 1929 1890 1775 1699 1668 1743 1301 803 1083 1228
300 345 402 325 50 99 22 19 245 295 0 0 185 199 105 438 224 63 12 1032 1220 1288 1326 1720 2785 2821 3027 2897 2199 2277 2485 2450 2676 2663 2342 2452 2135 2271 2146 1736 1403 1463 1523 1773 1811 1515 864 1033 1267
72 576 514 423 27 15 78 63 100 0 0 0 244 279 136 200 273 35 646 924 1165 1344 1502 1866 2243 2266 2713 3101 2699 2409 2629 2593 2759 2725 2574 2460 2115 1892 1943 1855 2019 1215 1612 1262 1406 1329 1110 752 765
362 401 485 241 19 14 2 6 0 73 57 11 421 290 204 265 218 307 578 843 1043 1365 1594 1614 1744 1816 2310 2647 3216 3276 3131 2928 2409 2129 1865 1769 1842 2013 1786 2378 2130 1684 1557 1453 1453 1144 1279 1356 1049
208 15 80 24 16 1 0 0 1 49 23 298 654 294 250 250 224 711 313 339 797 1129 1211 1396 1535 1461 1659 2080 2204 3095 2538 2521 2438 2117 1942 2448 1302 1428 1414 1982 1911 1622 1513 1462 1627 1061 1437 1831 1391
25 4 9 0 0 0 0 0 0 47 1031 1131 586 279 208 283 165 772 487 357 515 749 778 1003 1209 1423 1599 2174 1908 2113 1864 1929 1694 1734 1398 1398 1083 869 1281 1663 1705 1851 1565 1613 1581 1458 1291 1412 723
0 0 0 0 0 0 0 0 0 0 836 474 285 207 162 178 138 85 713 965 862 726 761 821 1205 1396 1431 1577 1839 1661 1609 1260 1517 1519 1428 1376 1205 1084 894 1330 1282 1063 1693 1363 1547 1472 966 1152 804
0 0 0 0 0 0 0 0 0 0 2 453 259 179 133 94 75 122 177 632 956 929 1011 923 1042 1253 1088 1681 1618 1396 1341 1261 1287 1462 1642 1279 677 723 848 1121 1154 1086 1127 1133 1070 788 601 320 208
0 0 0 0 0 0 0 0 0 0 136 614 234 174 138 109 66 60 92 241 765 762 1073 1341 1373 1344 1250 1679 1160 1325 1218 1317 1336 1552 1535 1687 779 818 1114 881 1204 1159 974 809 699 429 288 160 176
0 0 0 0 0 0 0 0 0 0 0 1029 356 181 171 137 107 59 82 164 252 291 984 1569 1592 1609 1501 1896 1369 1353 1431 1439 1421 1660 1380 1843 1192 1228 1342 1094 1045 772 735 706 712 521 327 125 155
0 0 0 0 0 0 0 0 0 0 0 0 1108 434 311 308 216 111 106 137 276 328 1751 1669 1536 1686 1735 2038 1943 1582 1681 1598 1418 1808 1478 1691 1550 1675 1389 1039 783 677 663 994 275 1031 841 375 233
0 0 0 0 0 0 0 0 0 0 0 0 746 1209 782 588 546 330 302 275 352 463 1250 2030 1926 2020 1825 2029 2027 1612 1352 1422 1780 1899 1844 1607 1435 1523 1398 1343 1147 792 958 775 466 1032 817 516 305
0 0 0 0 0 0 0 0 0 0 0 0 0 738 1240 1114 1058 946 942 853 648 554 778 1818 2028 1864 2253 2301 1957 1535 922 1393 857 1724 1945 1622 1468 1476 1431 1141 1116 1365 1095 755 276 649 383 419 209
0 0 0 0 0 0 0 0 0 0 0 0 0 1 679 1324 1592 1421 1350 1290 935 869 1218 1385 1762 1626 2174 2334 1891 1821 1860 1365 1248 1301 1620 1713 1997 1695 1420 1356 1469 1401 1430 891 266 167 324 220 123
0 0 0 0 0 0 0 0 0 0 0 0 1 858 1200 1048 1772 1830 1775 1255 1518 1635 1975 2056 2092 2014 2216 2267 1968 1802 1537 1654 1412 1356 1693 1767 1748 1937 1681 1548 1238 1256 1368 789 359 552 542 719 778
0 0 0 0 0 0 0 0 0 0 0 0 398 689 1900 2036 1992 2113 2111 2016 2016 2075 2540 2360 2667 2290 2072 2168 1834 1778 1753 1448 1456 1197 1313 2101 1976 1703 1565 1290 749 1126 1345 1309 1300 1460 1138 967 758
0 0 0 0 0 0 0 0 0 0 0 43 469 788 1308 1952 1973 1913 2149 1921 2329 2436 2786 2434 2712 2370 2265 2151 2277 2182 2228 1650 1656 1356 1236 2135 2141 1853 1925 1748 925 944 1139 1154 1314 1535 1176 1037 1142
0 0 0 0 0 0 0 0 0 0 4 25 325 530 848 1426 1880 1953 1923 2140 2410 2474 2349 2665 2898 2923 2186 2496 2528 2450 2171 2098 1983 1682 1345 1159 2096 2074 1791 1790 1808 1621 1596 1047 1451 1934 1534 1432 1115
0 0 0 0 0 0 0 0 0 0 0 13 89 317 695 1056 1353 829 786 927 2313 2615 2659 2773 2904 3053 3142 2566 2802 2673 2570 2260 2298 2210 1827 1626 1583 1851 1847 1791 1866 1900 1572 1810 1239 1800 2011 1695 1288
0 0 0 0 0 0 0 0 2 0 3 31 56 230 323 429 542 647 694 701 574 545 992 3414 3166 3040 3182 3242 3012 2536 2417 2586 2294 2191 1579 1476 1931 1591 1811 1706 1418 1483 1615 1394 1664 1705 1801 1804 1739
0 0 0 0 0 0 0 0 1 16 38 12 8 16 228 484 489 797 978 781 938 905 766 780 1413 2417 3753 3660 3300 3179 2856 2778 2380 2140 1886 1466 1994 1804 1430 1797 1843 1543 1824 1624 1363 1408 1816 1566 1375
0 0 0 0 0 0 0 0 59 39 31 47 14 2 0 151 603 783 814 620 557 836 899 954 1270 1383 1735 2017 3279 3634 3682 3364 3047 2740 2323 1884 1896 1721 1673 1697 1820 1884 1680 1902 1803 1487 1386 1778 1662
0 0 0 0 0 0 4 41 26 3 1 0 0 4 27 71 30 2 126 333 507 491 500 637 1383 1584 1726 1893 2112 2390 3009 3231 3419 3387 2935 2771 2425 1820 1264 802 1717 1878 1877 1764 1768 1889 1785 1362 1734
0 0 0 0 0 0 1 39 14 8 0 0 0 0 0 0 0 13 67 359 295 458 465 582 590 1395 1563 1828 2118 2238 2243 2276 2635 2787 2846 3027 2801 2478 1966 1660 875 1650 1679 1742 1980 1874 1887 1842 1659
0 0 0 0 0 0 0 102 61 1 3 0 0 0 0 0 32 26 34 16 101 240 439 500 618 795 1357 1534 1397 1366 1537 1774 1915 2188 2657 2976 2947 2909 2504 2247 2009 502 840 1591 1633 1903 1860 1797 1952
0 0 0 0 0 0 0 3 0 7 0 0 0 0 16 25 19 15 41 79 212 302 367 580 710 851 1220 1331 1642 1686 1706 1570 1572 1621 1750 2113 2375 2506 2683 2691 2322 2034 2032 2030 1753 1716 1920 1917 1759

GFSSGP_con_sbcape_135.txt.gz
CAPE
805 1326 1242 18 4 0 0 0 1 0 6 117 347 523 423 351 152 1 0 142 372 521 745 655 1296 1273 1236 1197 1239 1554 1925 1919 2140 1950 2342 2547 2641 1633 1892 2166 1882 1443 1704 1757 1630 1525 1649 1103 785
746 420 19 18 5 0 22 33 75 28 87 120 227 295 418 497 129 0 39 399 497 585 472 775 1685 1612 1309 1703 1587 1521 1490 1675 1931 2236 2541 2855 2567 2120 1969 1517 1410 1384 1327 1362 1672 1592 1125 1108 1266
742 889 6 43 25 0 26 125 115 75 73 76 243 363 428 379 28 93 233 604 750 588 632 911 1388 1058 1510 1773 2316 1526 1297 1688 1915 2552 2652 2744 2338 1849 1896 1668 1442 1295 1222 1134 1227 1418 1545 1331 1101
639 65 2 6 54 73 46 47 153 72 30 193 391 490 429 545 286 135 376 677 717 605 452 1206 1452 1199 1437 1817 1958 2402 1974 2006 2208 2607 2615 2235 2280 1823 1554 1620 1740 1656 1385 1154 651 1077 1358 1449 1291
52 0 1 2 121 93 102 30 127 110 348 446 440 500 424 441 215 195 330 438 757 846 682 840 1861 1430 1696 2408 2632 2465 2578 2774 2569 2543 2473 2371 2182 2129 1939 1798 1877 1634 1795 1434 889 863 1230 1036 1082
15 31 14 29 78 290 80 57 234 115 362 513 569 408 341 362 129 103 109 378 969 1225 916 1116 2167 2319 2302 2279 1977 2111 2150 2427 2527 2446 2378 2611 2093 2001 1933 1717 1618 1765 1605 1665 1376 843 1244 1357 1232
95 124 191 154 203 172 83 53 204 232 379 518 514 387 378 407 201 11 69 505 1237 1565 1644 1510 1438 1884 2216 2491 2547 2867 3031 2993 2681 2852 2904 2507 1961 1957 2212 1850 1720 1554 1677 1804 1573 1345 799 1177 1066
147 165 388 419 170 66 75 66 149 5 120 459 410 424 439 349 174 175 434 762 1202 1481 1512 1949 1876 1694 1843 2010 3043 3081 3231 3151 3053 2653 1899 1843 1725 1673 1634 2083 2164 1495 1439 1608 1468 1254 1192 897 920
309 351 353 433 74 0 32 15 0 24 406 429 387 418 456 417 549 847 738 745 1038 1341 1679 1658 1675 1940 1668 1741 2264 3101 2786 2422 2151 1930 2029 2384 1355 1529 1661 1958 1769 1755 1620 1618 1527 1357 1241 1303 1157
245 183 258 286 20 6 51 15 0 290 370 401 420 509 540 703 1031 965 801 773 838 1338 1643 1553 1509 1786 1832 2040 1802 2250 1985 1913 1788 1407 1535 1563 1219 1277 1530 1633 1888 1741 1628 1491 1744 1566 1274 1047 666
29 3 0 0 0 0 2 0 91 250 299 240 363 382 696 960 1013 986 924 790 835 1192 1539 1492 1498 1552 1898 1914 1791 1808 1660 1718 1546 1596 1456 1398 1052 1306 1364 1458 1504 1395 1726 1150 1639 1441 1031 567 730
0 0 0 0 0 0 0 16 197 210 315 222 358 293 717 767 852 896 861 768 858 989 1218 1389 1391 1351 1547 1451 1765 1724 1692 1584 1444 1336 1165 1247 1003 852 1012 1001 1139 1061 1163 1094 1027 1016 906 430 284
0 0 0 0 0 0 0 414 371 271 233 200 272 500 514 555 634 702 602 675 783 809 900 1083 1046 1186 1189 1377 1324 1229 1569 1679 1598 1297 1181 1119 959 848 844 843 1040 980 816 962 758 714 518 446 304
0 0 0 0 0 0 0 0 154 419 112 226 261 366 348 382 426 461 421 332 504 533 604 803 927 992 973 1191 1156 1049 1181 1304 985 1115 1108 1110 827 675 758 778 1034 999 810 773 758 598 461 351 285
0 0 0 0 0 0 0 0 104 344 171 205 203 291 398 334 239 243 374 289 290 273 473 686 778 955 879 1150 942 752 751 807 841 910 1117 1204 904 642 820 759 829 919 815 804 647 476 428 344 281
0 0 0 0 0 0 0 0 284 170 193 201 224 166 121 368 409 296 447 430 311 269 526 534 868 928 695 1223 922 608 628 768 826 839 1129 1203 1294 943 850 955 760 689 606 599 544 389 325 298 309
0 0 0 0 0 0 0 0 275 134 180 171 209 201 141 11 85 242 568 756 656 615 690 704 866 998 824 1130 1212 946 742 938 1022 914 1041 1139 1274 1339 1080 1067 979 620 494 421 475 396 302 375 348
0 0 0 0 0 0 0 0 193 150 161 170 115 107 143 55 14 0 129 607 739 553 927 1026 1172 1120 1114 1059 1376 1270 881 838 1012 1224 1310 1313 1163 1251 1225 974 854 716 588 405 388 347 252 278 309
0 0 0 0 0 0 0 0 0 135 147 131 102 136 131 85 57 0 197 334 532 696 1099 1270 1335 1255 1264 1232 1446 1398 1431 1129 704 998 1444 1563 1366 1151 1020 1088 822 616 661 646 636 442 367 311 197
0 0 0 0 0 0 0 0 0 0 140 181 159 178 195 162 121 218 557 495 755 1310 1314 1323 1301 1332 1484 1251 1258 1470 1317 783 880 755 1041 1455 1424 1142 1054 952 793 717 759 674 658 516 379 231 232
0 0 0 0 0 0 0 0 0 234 742 486 357 298 340 341 522 466 1008 553 568 1210 1498 1586 1400 1322 1565 1475 1128 1221 1091 1095 915 863 827 1080 1339 1433 1325 1076 935 830 705 861 805 612 433 654 241
0 0 0 0 0 0 0 0 0 3 951 1239 1022 921 715 684 929 859 1191 894 629 728 1301 1632 1584 1340 1532 1406 1444 1459 1421 1357 1223 1039 830 805 1336 1408 1501 1500 1161 1058 774 659 637 619 594 310 407
0 0 0 0 0 0 0 0 0 97 1070 1258 1341 1467 1502 1534 1357 1406 1434 1257 837 1095 1451 1825 1609 1507 1418 1621 1766 1588 1544 1304 1046 1352 1429 1260 940 1462 1594 1437 1421 1245 945 685 655 516 596 538 670
0 0 0 0 0 0 0 0 0 173 956 914 1225 1405 1401 1243 1407 1647 1801 1690 1578 1766 1888 2056 1997 1706 1365 1524 1738 1961 1789 1568 1545 1634 1581 1587 1525 1189 1448 1667 1329 1223 1117 851 684 479 620 727 748
0 0 0 0 0 0 0 0 0 0 384 1124 1059 1365 1000 878 1201 1438 1883 1981 2093 2289 2472 2233 2251 2253 1939 1816 1718 1819 2027 2141 2131 1896 1888 1890 1763 1441 1332 1454 1611 1249 1284 1253 863 741 649 745 927
0 0 0 0 0 0 0 0 0 0 3 239 1009 967 611 438 656 1227 1311 1351 1569 2011 2339 2538 2221 2178 2261 2488 2488 2339 2186 2196 2044 2071 2102 2068 1947 1832 1530 1238 1392 1538 1443 1222 1032 771 743 830 825
0 0 0 0 0 0 0 0 0 0 0 22 97 365 572 581 539 708 549 542 798 940 1160 1721 2089 1873 1224 1888 2265 2439 2566 2431 2194 2098 2123 2139 2078 2039 1839 1481 1294 1200 1306 1295 1093 938 906 889 1032
0 0 0 0 0 0 0 0 0 0 0 0 50 361 410 429 542 547 392 258 238 315 296 332 587 656 666 699 759 868 903 1109 1498 1743 1727 1584 1745 1972 2157 2089 1766 1350 1177 1174 1178 767 940 828 855
0 0 0 0 0 0 0 0 0 0 0 1 10 208 192 57 102 107 83 153 139 63 126 177 247 324 465 592 790 921 920 861 860 955 1128 1140 1197 1306 1446 1597 1772 1806 1675 937 1147 1339 1028 1091 959
0 0 0 0 0 0 0 0 0 0 0 0 0 0 0 0 0 0 0 0 1 6 6 35 82 197 462 350 433 545 571 514 429 456 357 396 488 638 987 1338 1471 1480 1749 1621 931 1190 1642 1426 1372

GFSSGP_con_sbcape_138.txt.gz
CAPE
813 1004 1393 49 0 0 0 0 0 0 0 35 283 240 299 196 48 0 0 112 341 388 310 770 1512 1089 1010 1026 1385 1652 2430 2164 2390 2374 2507 2245 1759 1891 1948 1810 1832 1605 1582 1500 1460 1615 1572 765 610
705 1035 61 27 0 0 0 21 16 0 47 54 165 284 356 413 0 3 123 310 398 282 362 455 1442 1522 1262 1215 1760 2402 2218 2206 2472 2619 2590 2177 1765 2467 2217 1527 1442 1512 1580 1336 1301 1221 814 752 944
538 477 16 10 0 0 0 38 26 40 69 20 187 269 387 35 2 6 208 460 445 347 352 731 1540 1224 1448 1476 1615 2218 2381 2308 2526 2481 2339 1970 1898 2575 1525 1350 1307 1222 1235 1319 1114 715 967 1125 1304
781 14 1 5 10 9 15 9 22 22 108 233 333 358 355 139 117 217 528 578 466 433 382 1012 1563 1698 1674 1493 1706 1866 2246 2162 2550 2689 2510 1828 1890 1696 1647 1723 1551 1282 976 892 1229 1204 1022 771 947
2 0 0 0 0 23 54 13 105 35 328 486 348 350 332 246 309 444 635 614 527 425 502 1111 1815 1835 1822 2011 2301 2407 2253 2328 2740 2710 2268 2307 2012 1832 1862 1903 1837 1722 1277 776 935 1158 1206 1092 934
3 0 0 6 13 57 29 3 100 214 354 346 403 288 299 213 253 389 425 629 651 493 513 982 1854 2123 2645 2481 2303 2596 2244 2298 2611 2409 2067 1958 1956 1936 1818 1691 1632 1672 1777 1151 895 1118 1082 880 999
84 162 228 104 151 133 55 33 61 211 336 431 370 353 303 103 150 221 335 865 961 827 646 855 1165 1761 1894 2619 2755 2642 2717 2555 2794 2710 2821 2458 1667 1861 1913 1762 1845 1722 1538 1797 1093 1056 1326 1243 1040
91 218 336 313 107 83 24 56 13 197 214 342 317 360 369 233 34 68 454 889 1125 1061 954 892 995 1517 1573 1685 2480 3082 2909 2903 2308 2184 1826 1779 1852 1865 2018 2114 2041 1383 1673 1682 1306 1121 752 985 864
208 270 339 379 299 37 12 32 0 6 289 388 333 357 340 226 107 361 596 864 1046 1077 1114 1338 1450 1565 1634 1953 2034 3225 2831 2361 1895 1649 1354 2142 1335 1460 1588 1710 1454 1554 1542 1477 1389 1247 1216 996 939
75 85 52 318 204 0 25 20 0 108 263 304 413 398 294 142 472 423 490 745 941 1201 1462 1513 1843 1591 1576 2076 1820 2278 2062 1777 1555 1272 1559 1511 1214 1228 1677 1911 1904 1643 1608 1493 1695 1615 1237 1137 825
12 0 0 0 0 0 1 0 93 161 177 244 431 406 288 533 535 498 429 576 708 1069 1475 1387 1553 1735 1754 1906 1853 1992 1746 1723 1503 1361 1312 1466 1188 1533 1633 1427 1242 1446 1779 1288 1578 1479 1154 562 669
0 0 0 0 0 0 0 0 90 159 142 207 451 402 431 704 670 621 535 504 528 1109 1444 1385 1417 1580 1676 1525 1706 1855 1638 1652 1585 1518 1377 1342 1111 1018 1153 1063 1269 1267 1297 1291 1155 1215 1032 637 354
0 0 0 0 0 0 0 18 143 180 148 316 417 514 725 771 766 756 664 525 614 858 1167 1358 1299 1306 1343 1393 1494 1493 1534 1615 1641 1461 1342 1307 1221 1060 877 1024 1008 1171 1034 1139 1033 990 792 569 510
0 0 0 0 0 0 16 85 283 178 279 296 434 602 685 727 756 771 661 547 697 696 857 1119 1070 1078 1145 1199 1270 1166 1298 1416 1284 1250 1316 1215 1137 909 789 920 1009 1088 898 862 892 810 728 518 412
0 0 0 0 0 0 0 0 0 153 327 285 469 533 560 539 611 634 497 490 572 587 682 860 894 857 977 1090 1071 886 847 967 999 957 1081 1134 1066 858 806 805 870 1049 988 852 711 814 675 556 441
0 0 0 0 0 0 0 0 249 213 330 329 484 470 504 409 461 476 450 214 330 334 458 673 992 886 796 1049 931 776 619 725 768 752 885 1081 1214 1006 724 802 777 732 800 720 709 678 625 466 362
0 0 0 0 0 0 0 0 198 169 311 316 378 499 482 377 294 222 334 248 113 65 244 461 710 786 790 931 987 727 573 578 743 720 817 1002 1253 1203 1105 991 984 839 694 543 575 551 327 416 401
0 0 0 0 0 0 0 0 176 144 239 305 300 296 388 361 494 314 255 573 417 140 214 365 542 647 702 702 1049 949 775 642 753 856 868 1019 1131 1387 1416 1290 999 945 717 556 551 564 372 361 397
0 0 0 0 0 0 0 0 242 153 162 203 230 258 232 111 60 110 273 623 689 494 468 511 654 645 759 781 1076 1068 1216 1186 768 805 1159 1178 1125 1065 1286 1373 1158 809 901 885 584 576 515 454 319
0 0 0 0 0 0 0 0 0 179 206 173 165 150 177 103 44 11 147 391 598 489 514 706 884 891 892 813 914 1077 1163 1055 1110 833 888 1337 1539 1377 1214 1213 1117 872 880 716 707 652 525 430 362
0 0 0 0 0 0 0 0 0 238 174 199 159 148 133 89 54 67 340 344 544 674 658 935 893 924 1140 954 819 894 786 764 762 855 845 879 1370 1476 1270 1226 1191 941 785 800 746 766 642 736 417
0 0 0 0 0 0 0 0 0 0 651 806 199 172 137 123 160 130 599 454 531 820 1110 992 1078 1050 1148 1201 1084 1197 1213 1181 1069 875 648 595 981 1386 1504 1424 1213 1100 948 887 927 857 875 735 870
0 0 0 0 0 0 0 0 0 34 758 1070 740 269 200 210 465 452 843 642 536 677 1165 1397 1406 1114 1268 1353 1405 1102 1132 1127 1039 953 1092 1052 762 1148 1404 1560 1599 1182 1019 1009 1021 802 724 677 891
0 0 0 0 0 0 0 0 0 70 501 916 1141 1054 1012 960 864 930 1039 947 701 888 1239 1517 1461 1374 1164 1307 1446 1412 1439 1525 1289 1107 1129 1275 1260 1100 1262 1590 1590 1517 1265 1130 1039 840 825 761 725
0 0 0 0 0 0 0 0 0 0 270 1075 1350 1364 1336 1355 1333 1341 1467 1340 1111 1249 1374 1656 1630 1462 1236 1257 1299 1394 1543 1571 1547 1606 1717 1820 1814 1743 1596 1243 1674 1638 1317 1211 928 709 729 646 670
0 0 0 0 0 0 0 0 0 0 0 1046 1300 1245 1010 1191 1332 1501 1610 1573 1591 1608 1778 1824 1797 1819 1747 1569 1536 1470 1510 1727 1882 1947 2000 2019 2052 2111 2023 1554 1487 1602 1659 1456 1410 1065 621 521 447
0 0 0 0 0 0 0 0 0 0 74 869 783 958 1093 1105 1060 1406 1536 1663 1594 1753 1890 2108 1983 1702 1623 1877 1968 2063 2071 2092 2247 2099 1892 2042 2020 2057 1916 1754 1583 1459 1556 1650 1566 1440 1232 854 856
0 0 0 0 0 0 0 0 0 0 7 401 300 714 842 556 676 921 940 715 498 519 452 796 1143 1490 990 513 560 725 675 689 926 1218 1434 1513 1513 1503 1705 1881 1912 1726 1520 1483 1541 1507 1245 871 927
0 0 0 0 0 0 0 0 0 0 0 142 254 456 508 450 447 480 287 137 161 90 130 111 149 235 187 228 382 559 620 579 601 698 731 808 744 664 699 834 1192 1478 1731 1599 1442 1497 1464 1204 1046
0 0 0 0 0 0 0 0 0 0 0 0 5 50 89 91 127 52 22 7 16 17 9 0 4 66 151 289 305 199 180 204 228 188 191 153 118 173 317 463 616 947 1397 1721 1514 1348 1680 1297 1436

GFSSGP_con_sbcape_144.txt.gz
CAPE
578 1567 1289 1175 913 10 5 18 4 0 25 442 449 473 486 469 497 400 231 577 535 827 833 830 1392 1017 1324 1842 1745 2353 2652 2672 2676 2674 2769 2542 2564 2373 1768 1812 1790 2334 1919 1960 1552 1105 650 1081 1202
1090 1329 1004 974 107 8 13 6 102 25 0 23 99 195 249 343 144 252 517 517 532 796 751 1119 1181 1311 1184 1798 2145 2456 2824 2686 2764 2667 2781 2851 2836 2597 1907 1789 1712 1928 1719 1391 910 743 1032 1497 1496
1356 1025 1156 326 29 14 8 112 259 98 23 6 198 431 385 54 205 370 607 672 732 731 614 1269 1212 1635 698 1373 2316 2778 2845 2473 2251 3040 2911 2755 2600 2332 1558 1826 1662 1629 1281 836 800 1065 891 1030 1251
1518 1306 788 100 30 176 129 169 88 83 12 136 251 427 457 443 400 633 561 692 713 772 674 1201 1013 755 754 1905 2626 2709 2884 2574 2631 2915 2857 2476 1979 1536 1253 1282 1508 1542 1285 934 1087 1320 1395 1247 1379
694 507 172 77 56 188 250 218 257 36 102 125 252 491 644 709 720 700 622 668 864 663 500 741 1249 1055 1245 1853 2707 2719 2990 2863 2426 2983 2470 2339 2091 1948 1724 1229 883 1249 1489 1363 976 1165 1197 1020 857
1083 904 108 93 83 264 251 262 131 17 60 329 500 553 728 577 720 743 600 532 768 893 542 474 591 829 824 1574 2021 2712 2763 2076 2386 2232 1985 2139 2033 1845 1767 1678 1419 903 1168 1430 1394 1281 1070 1047 919
532 475 497 229 146 158 339 286 274 226 5 54 218 647 557 544 668 806 696 724 601 919 951 1079 573 670 634 662 1595 1975 2332 2347 2695 2238 1916 1705 1769 1626 1758 1921 1666 1658 924 1139 1287 1190 1020 1081 814
436 461 51 64 104 180 447 406 479 397 240 348 296 392 663 760 785 823 577 702 942 194 610 937 881 887 841 1035 1058 1974 2516 2551 1545 1520 1494 1484 1904 1896 1455 1910 1787 1697 1669 1116 927 1103 1237 1101 773
512 31 3 14 36 114 463 475 542 539 672 700 271 368 594 535 646 807 710 845 1037 773 272 721 565 504 1366 1697 1751 2532 2118 2054 1592 1385 1342 1322 561 843 1303 1247 1306 1535 1478 1285 1197 988 842 773 715
7 0 0 0 0 27 225 358 578 662 850 566 605 601 500 440 600 701 839 923 1042 758 591 74 195 584 335 1135 2288 2463 1284 312 1107 829 766 582 925 1378 1365 1187 1518 1489 1353 1441 1654 1377 1155 449 327
0 0 0 0 0 1 245 466 489 476 527 595 594 589 441 410 563 620 952 873 918 820 499 740 731 286 346 339 1900 2077 2276 2115 1350 1490 1150 1156 1128 1297 974 949 814 920 1543 1135 1072 1777 717 109 162
0 0 0 0 0 9 217 508 543 740 747 723 465 497 462 291 434 444 706 1092 1161 1059 925 808 1050 966 1052 1123 1220 2013 2172 1338 1002 1211 1932 1792 1189 1220 1280 1234 1162 1315 937 1551 1485 640 739 441 170
0 0 0 0 0 2 261 441 649 971 918 575 441 473 475 298 260 231 412 705 1057 1279 1282 1338 1459 1594 1663 1829 1488 1675 1444 1645 1555 1993 1945 1721 1382 1606 1429 1278 1197 1686 1640 1457 1530 1133 970 852 386
0 0 0 0 0 10 74 465 691 1034 1032 612 434 468 431 368 286 329 278 407 777 1054 1359 1597 1951 2039 1949 2031 2112 2180 2184 2030 1994 1691 1712 2075 1865 1784 1476 1458 1267 1741 2488 2105 1994 1507 1269 1075 486
0 0 0 0 0 0 52 302 496 1243 1167 660 412 479 471 470 498 535 461 538 648 1134 1332 1484 1837 2094 2293 2394 2416 2272 1649 1493 1439 1425 1827 2254 2606 2222 2195 1689 1552 1579 2204 2183 1832 1933 1537 1379 1123
0 0 0 0 0 0 7 55 848 1283 1142 788 487 491 612 650 630 694 766 787 817 870 1306 1708 1412 1679 2099 2120 2110 1825 1664 1802 1649 1562 1537 1789 2045 2048 1987 1712 1592 1561 1982 1948 2120 1918 1648 1527 1411
0 0 0 0 0 0 0 36 867 1059 1185 1064 944 841 781 964 1074 1210 1018 874 895 1104 1370 1675 1870 1751 2069 2305 2183 2138 2036 1986 1553 1423 1449 1581 2043 2134 2257 2085 2114 2504 2161 1993 1948 1879 1959 1808 1743
0 0 0 0 0 0 0 114 734 935 1264 1078 1207 1108 1039 1069 1218 1440 1533 1477 1423 1244 1468 1767 1813 1978 2197 2156 2348 1927 1769 1889 1852 1798 1629 1622 1916 2179 2501 2403 2635 3071 2572 2306 2097 2113 1896 1829 1526
0 0 0 0 0 0 0 21 528 926 1205 1173 1169 1352 1303 1202 1085 1223 1427 1541 1591 1769 1860 1764 1900 2132 2288 2103 1754 1555 1463 1745 1987 2103 2242 2367 2327 2327 2523 2484 2505 2644 2736 3031 2793 2865 2634 2165 1811
0 0 0 0 0 0 0 0 236 742 875 1124 1175 1219 1337 1390 1378 1275 1388 1420 1599 1760 1944 2136 2124 2227 2461 1795 1755 1487 1520 1647 2079 2430 2544 2671 2827 2868 2909 3098 2824 2618 2437 2505 3047 3139 2976 2237 3101
0 0 0 0 0 0 0 10 164 458 716 863 1062 1198 1180 1343 1446 1583 1602 1593 1571 1810 2204 2269 2601 2365 2450 2004 1931 2226 2296 2298 2260 2488 2614 2806 2985 2909 3274 3089 3807 3158 3379 2019 2723 3429 2742 2236 3380
0 0 0 0 0 0 0 31 1 51 427 708 877 1152 1236 1291 1326 1430 1547 1841 1833 1913 2090 2595 2928 2963 2732 2847 2581 2870 2689 2777 2329 2789 2631 2595 2871 2932 2866 2944 3219 3382 2742 2898 2431 2969 3633 3410 1955
0 0 0 0 0 0 0 0 46 30 54 150 419 816 1105 1298 1346 1399 1507 1533 1611 1807 2121 2539 3082 3473 3393 3365 3426 3117 3246 2799 2768 2959 3209 3516 3567 3361 3395 2897 2938 3747 3182 3133 2849 3049 2886 2375 2580
0 0 0 0 0 0 0 0 0 1 3 8 45 446 889 1156 1289 1322 1408 1587 1732 1635 1659 2079 2850 3522 3548 3530 3559 3680 3494 3463 3453 2961 3206 2621 2154 2189 2684 3240 3542 3709 3682 3309 3411 3737 3243 3014 2903
0 0 0 0 0 2 0 0 0 0 12 82 145 195 693 1030 1251 1376 1489 1633 1981 1959 1906 2019 2743 3419 3462 3358 3362 3591 3829 4050 4168 3939 2580 2702 1433 934 1775 2872 3295 2840 2665 2902 3405 3272 3256 3607 3230
0 0 0 0 0 5 0 0 0 26 124 322 436 347 611 875 1147 1343 1318 1722 2027 2145 2312 2290 2866 3519 3662 3483 3700 3954 4180 3914 3410 3099 3111 2972 2325 1363 2573 2255 2688 2272 2278 2362 2972 2685 3192 2999 3121
0 0 0 0 0 0 0 0 0 88 338 583 686 706 804 1149 1172 1478 1601 959 1612 2402 2743 2775 3133 3884 3777 3621 3892 4167 4349 4344 3409 3821 3568 1696 1557 968 894 1553 1867 2009 2057 2145 2383 1892 1895 2000 2684
0 0 0 0 0 0 0 0 0 0 78 839 1206 1310 1438 1557 1558 1906 1969 2205 2354 2717 3040 3175 3622 4077 3909 3827 3870 3929 3883 3503 2951 2241 1426 821 621 694 776 783 835 1063 1098 1009 1983 1291 1276 1880 1361
0 0 0 0 0 0 0 0 0 0 0 386 1118 1433 1564 1917 1942 2326 2013 2630 3225 3169 3364 3577 3731 3991 4149 3565 2992 2918 2373 1693 840 455 378 443 527 641 607 941 1122 692 840 963 1402 1558 1204 1366 1896
0 0 0 0 20 0 0 0 0 0 0 83 617 1483 1998 2201 2339 2591 1994 2897 3124 3096 3281 3328 3329 3269 2875 2546 2388 1811 966 395 166 260 292 323 290 229 177 397 777 740 865 1138 1026 917 651 748 1163

GFSSGP_con_sbcape_147.txt.gz
CAPE
381 1218 1983 1633 1922 87 77 22 2 35 73 78 78 229 438 352 612 467 488 661 693 558 455 404 648 1236 1584 1769 2055 2391 2481 2394 2386 2632 2487 2557 2543 2505 2050 1898 1675 1712 1644 1765 1050 761 1036 1032 1058
1553 1568 1766 1927 297 89 47 20 0 0 0 13 229 136 266 375 392 417 676 594 710 752 735 552 911 1596 1417 2198 2110 2677 2642 2693 2652 2461 2211 2407 2103 2612 2316 1707 1834 1761 1356 883 951 1702 1902 1492 1183
1750 1480 1790 412 93 99 58 89 111 0 0 36 282 430 263 296 435 508 781 594 710 600 888 855 776 857 1412 2159 2230 2722 2739 2262 2109 2326 2746 2630 2359 2565 1874 1767 1600 1283 885 940 1124 1086 1153 1184 1279
1905 2197 1758 91 55 51 46 81 2 0 12 98 373 651 597 353 513 480 637 745 790 705 684 709 611 429 977 2337 2550 2575 2494 2715 2779 2781 2634 2478 2319 2039 1675 1830 1680 1183 1168 1247 1308 1114 1535 1521 1373
1528 1037 273 100 66 46 81 15 0 0 25 172 455 883 610 584 654 686 774 832 898 552 269 416 475 856 1412 2131 2777 2661 2220 2571 2419 2458 2238 2317 2016 1562 1216 1001 1541 1550 1544 1065 1475 1446 1290 993 938
1316 952 94 152 77 67 101 80 39 35 182 322 624 826 858 506 598 664 463 767 623 446 362 515 342 444 1286 1418 2020 2381 1684 2395 2791 2405 2279 1890 1816 1778 1755 1349 930 1411 1581 1561 1456 1161 1145 1020 850
768 156 297 133 67 62 93 84 41 11 0 75 358 765 813 493 586 604 425 793 648 223 149 331 251 188 107 45 1296 1516 1859 2076 2451 2250 2003 1701 1552 1752 1788 1652 1421 854 1214 1415 1328 1143 1003 903 685
550 269 108 118 71 80 89 69 121 130 308 273 498 646 976 720 736 572 611 995 859 432 770 386 376 250 216 657 343 603 2291 2384 1618 1373 1165 1688 1661 1260 1318 2055 2060 1664 1096 876 1033 1108 1004 822 642
297 119 34 37 108 113 150 42 324 392 92 144 378 745 706 934 711 756 843 657 671 833 845 456 138 245 401 454 15 358 1771 1581 1616 1314 1014 1449 628 1283 1021 1585 1458 1441 1316 1105 912 772 670 716 826
113 17 0 0 1 60 52 32 201 477 238 417 561 648 566 811 719 719 748 952 517 605 857 627 166 260 678 517 1490 2188 1143 882 814 1338 567 1303 1218 1186 529 1084 1297 1328 1251 1545 1483 1321 868 392 253
9 9 1 0 0 59 54 38 158 167 300 300 555 620 600 640 850 859 929 782 658 313 120 58 2 92 140 502 2103 2237 2302 1774 1028 1187 1026 1388 1046 1401 867 1453 1451 2192 1541 1396 1507 1802 1350 127 65
21 0 0 0 0 38 99 103 47 121 272 281 430 525 627 582 1043 667 682 720 450 621 626 321 309 529 260 271 927 2310 1893 1641 1743 1245 1356 1797 888 1297 1014 1559 884 2158 1552 1102 829 671 996 265 200
1 0 0 0 0 17 46 131 287 409 212 250 328 404 535 576 620 984 1030 816 787 832 783 1038 913 1317 1738 1986 1226 1624 2198 1779 2269 1796 1246 1332 1417 2568 1319 1229 1004 1328 1477 1452 1366 990 806 923 451
0 0 0 0 0 0 21 75 472 560 265 311 309 340 303 456 546 663 698 905 929 978 1085 990 1223 1467 1872 1804 1991 2932 1934 2111 2010 1785 2047 2198 1903 2793 1779 1434 1528 1619 2046 2013 2032 1736 1579 1380 724
0 0 2 0 0 0 3 59 552 705 379 386 416 344 278 330 381 493 670 792 895 1071 1078 1495 1553 1593 1764 2018 2176 2153 1829 1428 1342 1300 1774 2394 2399 2464 2338 1510 1420 1434 2277 2256 2694 2240 1755 1306 922
0 0 6 0 0 0 8 62 699 773 497 471 488 360 368 373 404 475 488 580 760 925 1204 1405 1332 1702 2043 2147 2193 1916 1552 1562 1447 1413 1468 1992 2330 2209 2103 1697 1769 1791 2164 2086 2270 2136 1806 1579 1191
0 41 0 0 0 0 14 71 494 723 627 563 630 517 438 474 527 667 655 716 759 977 1419 1588 1437 1499 1942 2210 2192 2310 2249 2127 1640 1361 1287 1434 1818 2023 2357 2009 1998 2694 2426 2283 2049 2613 2713 2500 2002
3 35 2 0 0 0 33 27 143 573 673 761 760 760 749 687 660 700 654 717 899 1107 1488 1822 1905 1913 2158 2193 2508 2331 2204 2272 2161 1938 1795 1651 1816 2100 2508 2378 3076 3126 3802 2306 2430 2953 2132 1979 1848
0 5 1 4 0 0 18 40 118 257 499 686 1013 1098 1040 1034 1027 1030 899 788 778 965 1453 1909 2073 3055 2649 2284 2036 1914 1899 2448 2345 2610 2507 2416 2392 2365 2652 2485 2303 2841 3594 3060 3482 2727 2971 2783 2963
0 0 8 0 0 0 2 33 110 140 352 395 742 1238 1187 1042 1174 1246 1284 1280 1282 1426 1628 1865 2322 3080 2985 2428 3114 2477 2012 1797 2315 3082 3235 2764 2859 2971 3060 3020 3215 3048 2908 3918 3169 3574 2974 2089 3170
0 2 4 0 0 0 2 10 43 108 175 478 545 844 1007 936 1049 1339 1425 1420 1392 1601 2063 2482 3023 3246 3356 3334 2556 2413 2667 2693 2564 2463 2962 3222 3201 3117 3207 2964 3343 3726 3845 2659 3240 3349 2983 2305 3002
3 0 0 0 0 2 0 20 2 44 116 249 554 746 912 809 906 1366 1556 1596 1557 1647 1967 2467 3280 3572 3149 3110 3432 4102 2822 3116 2426 2230 3452 3236 3114 3061 3011 3202 3393 3899 3798 3145 2673 3033 3160 3086 2288
0 0 0 0 0 6 5 1 28 32 61 143 163 564 759 951 727 1128 1593 1837 1779 1780 1934 2428 3926 4023 3852 3980 3798 3498 3670 2912 2059 1637 3047 4951 4203 3853 3240 2826 2905 3620 3827 3196 3384 3826 3964 3747 2930
0 0 0 0 0 6 5 0 74 62 34 31 105 243 574 791 809 725 1055 1605 1930 1935 2052 2409 4209 4705 4199 3956 4083 4235 3929 3449 2545 2416 1600 1281 821 621 3439 2102 2793 3010 3593 3534 3062 3859 3788 3490 3514
0 0 0 0 0 5 6 0 5 23 11 29 43 116 376 670 768 748 764 1088 1360 1456 1708 2256 3694 3922 4009 4020 3938 3959 4116 4251 3888 3443 1459 1218 919 701 3023 3519 3698 2633 3169 3497 3371 3431 3443 3595 3526
0 0 9 36 32 25 0 0 0 0 0 70 116 101 224 525 743 761 543 691 1026 1051 1609 1986 3030 3881 3996 3825 3963 4259 4318 3997 3500 3873 2307 1448 916 672 2265 1804 2236 2764 3034 3209 3094 1747 1902 2594 2598
0 0 1 1 0 2 18 0 0 0 0 110 184 55 218 477 682 891 695 511 750 951 1525 2189 3105 3890 4111 3983 4136 4661 4504 4424 4003 3646 3666 2326 1508 569 850 732 1117 1499 1660 2291 2843 1446 2154 2165 2234
0 0 0 0 16 8 26 0 9 0 0 175 408 423 260 593 654 860 972 651 745 857 1212 1926 2679 4007 4121 3815 3956 4191 4466 4514 4154 3696 2714 1074 732 723 611 595 570 1146 1403 1601 2001 1043 1005 1563 1136
0 0 0 7 12 41 33 56 1 0 0 9 291 751 816 908 978 981 1129 1150 703 975 1583 2294 2620 3772 3597 3473 3804 4377 3785 3388 3109 1873 893 707 663 675 735 1136 1247 1151 1195 1396 1818 2071 2087 1589 1784
0 0 0 0 0 0 0 24 0 0 0 0 0 262 917 1147 1131 1313 1657 1466 1966 1815 1984 2605 2956 3612 4108 4237 3646 3279 3000 2399 1167 805 665 534 621 566 711 1029 1129 1225 1218 1485 1740 1867 1472 1608 1516

GFSSGP_con_sbcape_150.txt.gz
CAPE
83 81 700 2110 1578 756 33 13 2 12 29 43 268 154 371 389 434 350 387 484 437 396 468 427 577 1178 1334 1665 2136 2292 2640 2823 2829 2728 2417 2118 2079 2149 2159 1988 1696 1462 1512 702 1019 856 1027 1447 1372
629 1387 1712 1856 1345 53 66 11 0 1 18 42 260 123 176 395 414 346 440 690 482 462 267 413 777 1566 1411 1847 2297 2467 2527 2134 2407 2243 2047 1682 1694 1697 1706 1677 1500 1954 1023 1070 1404 1535 1400 1024 1165
1317 2052 1560 2121 41 74 38 51 0 1 12 90 243 302 246 361 505 403 582 665 435 65 128 264 604 1808 1663 1986 2298 2693 2565 2467 2262 2159 1968 1772 1813 1861 1694 1494 1431 1551 1633 1332 1085 1195 1366 1284 1115
1746 1881 2120 89 46 39 0 0 0 14 36 424 477 387 503 464 478 508 517 694 625 323 196 224 316 1083 1086 1349 1768 1807 2017 2522 2679 2690 2594 2410 2152 2247 1647 2011 2038 2101 2054 1162 1334 1566 1485 1334 1195
1217 1269 298 16 7 16 5 0 5 13 237 451 617 620 539 582 572 658 621 652 481 236 204 153 451 1267 1347 1580 1828 2535 2545 2468 2336 2148 2041 2088 2031 1408 1507 1716 1497 1781 1468 1864 1786 1388 1099 1038 1041
1122 708 328 28 65 86 22 10 0 50 256 517 589 579 475 584 596 553 539 559 162 70 38 93 273 444 871 1099 1226 1963 2416 2526 2893 2372 1863 2080 1965 2154 1754 1340 1682 1663 1973 1464 1259 1179 1046 935 720
275 623 92 12 1 131 42 0 0 0 67 372 591 595 582 558 633 525 532 521 363 275 25 2 117 71 145 532 311 1288 2038 2428 2450 2058 2167 1870 2012 1701 1655 1599 1327 1357 1546 1370 1142 957 958 756 591
274 54 26 77 10 55 12 0 22 138 135 356 682 629 699 663 787 783 846 334 107 156 15 0 47 178 284 28 19 207 1546 1842 1623 1170 1605 1676 1209 1255 1472 2169 1948 991 867 1114 1209 1079 922 835 793
118 79 0 50 71 67 15 52 2 66 327 396 617 677 704 608 776 769 745 363 476 523 56 0 16 9 146 12 0 50 1289 1272 1258 915 864 1569 1440 1563 1327 1569 1709 1326 1087 828 737 753 937 1256 1385
32 0 0 0 8 73 18 147 65 199 390 499 902 710 765 614 687 633 722 699 603 467 408 2 1 0 95 0 3 118 1837 1354 1336 1756 1462 1060 1998 1992 844 1031 1428 1312 1316 1409 1473 1646 1676 1212 129
0 0 0 0 0 15 148 131 123 158 230 444 523 849 710 718 695 631 569 649 656 621 330 10 0 31 184 15 998 1536 1900 1444 1179 2616 1787 2284 2244 1702 1171 1714 1154 2090 1713 1672 1836 1840 1283 478 379
0 0 0 0 0 69 98 86 20 110 214 387 477 521 938 772 819 813 679 477 589 746 212 0 40 264 196 805 1250 1566 2070 1840 1797 1786 1892 2961 2356 1947 2475 1872 1850 2131 1762 1950 1833 1605 1632 721 500
6 0 0 0 0 33 88 55 76 162 205 327 473 425 699 813 758 723 719 588 394 499 62 20 335 937 615 779 1386 2011 2167 1749 1964 2349 2520 2356 2330 2364 2225 1834 2007 2223 2557 2542 2729 2176 1770 1076 1032
0 0 0 0 0 36 34 75 105 184 231 261 422 461 389 969 810 639 793 821 844 1195 1036 886 1092 1338 1269 330 936 2124 2072 2149 2177 2204 2603 2473 2788 3253 2940 2436 2565 2777 2643 2459 2934 3215 2663 2092 1493
0 0 0 0 0 23 224 180 148 210 277 306 263 290 415 470 790 1019 1013 1162 903 1339 1314 1265 1625 1710 1610 1512 1789 2585 2809 2079 1999 2223 3059 3240 3046 2893 2862 2405 2579 2152 3206 2628 2653 2743 2699 2501 1640
0 0 3 0 0 11 68 179 273 196 319 374 275 202 250 402 557 580 700 1002 1345 1214 1770 1580 1037 1770 2545 2708 3313 3182 2771 2662 2212 2591 3128 3456 3343 3565 2926 2599 2246 2481 2803 2643 2877 2842 2303 2147 2051
0 0 0 0 0 18 26 237 364 239 347 454 366 271 227 279 470 808 623 792 1095 1814 2400 2285 2639 2216 2752 3793 3056 3594 3610 3177 2533 2376 2572 3595 3204 3174 2880 2724 2639 2892 2734 2838 2708 2501 2680 2607 2449
3 1 0 0 0 0 44 114 323 301 278 510 469 372 368 313 379 512 596 673 1018 1874 2253 2694 2501 3412 3591 3307 3657 3264 2980 3043 2754 2717 2549 3002 2896 3158 3358 2965 3162 3324 3127 2933 2657 2820 2704 2483 2167
0 1 1 0 0 0 50 16 115 341 262 349 567 576 468 454 454 612 628 873 1038 1456 2168 2739 3241 3855 3551 3013 2880 2729 2579 2990 3009 2928 3510 3708 3168 3094 3383 3169 3160 3253 2034 2092 2597 2133 2693 2261 2618
0 1 0 0 0 0 48 40 0 65 309 395 529 687 653 662 743 807 925 898 1187 1507 2294 2882 3126 4069 3511 3275 3359 3405 3275 2437 2534 1366 1017 1149 3233 2721 3149 3358 2696 2932 2593 1675 1761 1798 2399 2481 2411
0 0 6 0 0 0 3 51 31 0 99 330 462 702 716 779 923 1378 1329 1155 1035 1414 2097 2808 3235 3330 3810 3357 3579 3756 3527 3684 1888 1 0 0 59 0 555 3689 3644 3172 2519 2411 1848 1297 1416 1825 2152
0 0 0 1 0 0 0 19 143 15 27 261 282 620 689 776 1132 1565 1663 1783 1584 1829 2169 2704 3259 3690 3650 4025 3300 3788 3014 2903 1959 32 0 0 3099 3376 3571 3543 3699 3575 3436 3482 3348 2654 2425 2032 1586
0 0 0 0 0 0 0 0 41 77 28 23 232 494 562 909 846 1031 1318 1784 1743 1693 2160 2862 3968 4131 4100 3814 4097 3844 4058 3638 3698 1696 2566 3629 4346 4077 3925 3959 3523 3575 4094 4041 3786 3454 3599 3193 2540
0 0 0 0 0 0 0 12 85 22 127 55 44 350 535 781 677 1109 1410 1852 1840 1840 1988 2793 4084 4479 4418 4722 4353 4584 5075 4953 4104 4240 2399 3276 2256 3548 4718 3937 4055 4053 4228 3726 3496 3558 3616 3451 3192
0 0 0 0 0 0 8 0 92 1 21 34 116 137 378 712 711 943 1393 1831 2007 1906 2063 2703 4056 4519 4701 4503 4533 4769 4929 5066 5200 4650 3405 2507 2672 2682 3939 3334 3733 3575 3604 3555 3836 3441 3162 2728 2515
0 0 0 18 27 7 4 3 4 25 4 1 1 66 144 309 686 613 873 1650 1872 1984 2237 2631 4204 4519 4611 4658 4669 4883 5078 4739 4600 4915 4006 3648 2758 2652 2810 2282 1984 1960 2152 2191 2521 2019 2475 2666 2191
0 0 0 0 0 36 23 0 7 1 0 0 0 0 69 261 315 783 749 1062 1222 1338 1870 2355 4106 4308 4392 4230 4419 4652 4873 4972 4287 4633 4882 4400 3694 1797 2249 1433 1487 1687 1735 1790 1858 978 1209 1165 1448
0 0 0 0 69 79 24 17 0 1 0 30 57 13 98 546 503 760 841 796 998 1083 1725 2107 3941 4059 4266 4114 4304 4468 4712 4930 5030 5005 4739 3799 2394 2002 1890 1727 1574 1588 1487 1530 1558 1054 1006 1100 1099
0 0 0 0 0 99 137 69 187 108 0 2 48 88 376 510 660 889 1018 869 944 764 1419 1861 2949 3716 4051 4416 4566 4719 4589 4931 4805 4465 3796 2636 2426 2161 2146 2013 1904 1643 1355 1210 991 924 965 971 1203
0 0 0 0 12 87 3 0 0 0 0 0 0 105 391 754 588 1149 1008 698 404 113 586 990 1437 3450 3893 4102 4443 4372 3763 3125 3031 3272 2258 2701 2460 2350 2117 1885 1767 1695 1284 1182 1228 1077 959 781 669